Regional Weather Roundup
Issued by NWS

Home | Current Version | Previous Version | Graphics & Text | Print | Product List | Glossary On
Versions: 1 2 3 4 5 6 7 8 9 10 11 12 13 14 15 16 17 18 19 20 21 22 23 24 25 26 27 28 29 30 31 32 33 34 35 36 37 38 39 40 41 42 43 44 45 46 47 48 49 50
000
ASUS43 KFSD 252302
RWRSD

WEATHER ROUNDUP FOR SOUTH DAKOTA
NATIONAL WEATHER SERVICE SIOUX FALLS SD
500 PM CST TUE NOV 25 2014

NOTE: "FAIR" INDICATES FEW OR NO CLOUDS BELOW 12,000 FEET WITH NO
SIGNIFICANT WEATHER AND/OR OBSTRUCTIONS TO VISIBILITY.


SDZ001>005-009-010-012>017-260000-
NORTHWEST AND NORTH CENTRAL SOUTH DAKOTA

CITY           SKY/WX    TMP DP  RH WIND       PRES   REMARKS
BUFFALO          N/A     36  28  73 NW25G35   29.73R
FAITH            N/A     37  30  75 NW18G28   29.76R
MOBRIDGE       LGT SNOW  33  31  92 S9        29.72R VSB 3/4 WCI  25
$$

SDZ012>016-024>037-041>051-057-063-072>074-260000-
SOUTHWEST AND SOUTH CENTRAL SOUTH DAKOTA

CITY           SKY/WX    TMP DP  RH WIND       PRES   REMARKS
RAPID CTY ARPT CLOUDY    36  28  73 NW23G35   29.83R
PIERRE         LGT SNOW  34  30  85 W6        29.77R FOG     WCI  29
CUSTER         CLOUDY    30  21  69 NW9       29.79R WCI  22
PHILIP         PTCLDY    35  31  85 W10       29.78S WCI  27
PINE RIDGE     CLOUDY    37  31  78 W8        29.83R
WINNER         CLOUDY    42  26  53 W6        29.76S
$$

SDZ004>011-016>023-039-040-260000-
NORTHEAST SOUTH DAKOTA

CITY           SKY/WX    TMP DP  RH WIND       PRES   REMARKS
ABERDEEN       LGT SNOW  32  28  85 SE9       29.81F FOG     WCI  24
WATERTOWN      MOCLDY    31  23  72 SE8       29.84F WCI  23
SISSETON         N/A     27  21  78 SE10      29.88S WCI  17
$$

SDZ017-020-022-023-036>040-048>070-260000-
SOUTHEAST SOUTH DAKOTA

CITY           SKY/WX    TMP DP  RH WIND       PRES   REMARKS
SIOUX FALLS    CLOUDY    35  23  61 SE9       29.87F WCI  28
HURON          CLOUDY    35  26  69 SE7       29.81F WCI  29
MITCHELL       MOCLDY    38  26  62 SE12      29.82F
YANKTON        CLOUDY    41  27  56 SE8       29.85F
$$

ABBREVIATIONS USED IN REMARKS
   TC - TEMPERATURE IN CELSIUS
  WCI - WIND CHILL INDEX
   HX - HEAT INDEX
  VSB - VISIBILITY




USA.gov is the U.S. government's official web portal to all federal, state and local government web resources and services.